This is the latest recevied weather packets stored in our database for station/object N5COP-13. If no packets are shown the sender has not sent any weather packets the latest 10 day(s).
| Time | Temp. | Humidity | Pressure | Rain* | Wind** | Luminosity | Snow |
|---|---|---|---|---|---|---|---|
| 1777472442 | 10° C | 71% | 1021.2 hPa | 0 mm | - | 380 W/m² | - |
| 1777472140 | 10° C | 72% | 1021.2 hPa | 0 mm | - | 307 W/m² | - |
| 1777471839 | 9.44° C | 72% | 1021.2 hPa | 0 mm | - | 246 W/m² | - |
| 1777471536 | 9.44° C | 73% | 1021.2 hPa | 0 mm | - | 228 W/m² | - |
| 1777471233 | 9.44° C | 74% | 1021.1 hPa | 0 mm | - | 264 W/m² | - |
| 1777470930 | 9.44° C | 74% | 1021.1 hPa | 0 mm | - | 206 W/m² | - |
| 1777470627 | 8.89° C | 75% | 1021.1 hPa | 0 mm | - | 230 W/m² | - |
| 1777470323 | 8.89° C | 75% | 1021.2 hPa | 0 mm | - | 191 W/m² | - |
| 1777470020 | 8.89° C | 76% | 1021.2 hPa | 0 mm | - | 176 W/m² | - |
| 1777469715 | 8.33° C | 77% | 1021.5 hPa | 0 mm | - | 204 W/m² | - |
| 1777469411 | 8.33° C | 77% | 1021.2 hPa | 0 mm | - | 155 W/m² | - |
| 1777469106 | 8.33° C | 77% | 1021.1 hPa | 0 mm | - | 147 W/m² | - |
| 1777468801 | 7.78° C | 78% | 1021 hPa | 0 mm | - | 164 W/m² | - |
| 1777468497 | 7.78° C | 78% | 1020.7 hPa | 0 mm | - | 136 W/m² | - |
| 1777468195 | 7.78° C | 78% | 1020.8 hPa | 0 mm | - | 112 W/m² | - |
| 1777467890 | 7.22° C | 79% | 1020.7 hPa | 0 mm | - | 100 W/m² | - |
| 1777467586 | 7.22° C | 79% | 1020.7 hPa | 0 mm | - | 75 W/m² | - |
| 1777467281 | 7.22° C | 79% | 1020.7 hPa | 0 mm | - | 66 W/m² | - |
| 1777466978 | 7.22° C | 79% | 1020.7 hPa | 0 mm | - | 69 W/m² | - |
| 1777466676 | 7.22° C | 80% | 1020.6 hPa | 0 mm | - | 73 W/m² | - |
| 1777466372 | 6.67° C | 80% | 1020.6 hPa | 0 mm | - | 61 W/m² | - |
| 1777466068 | 6.67° C | 80% | 1020.6 hPa | 0 mm | - | 46 W/m² | - |
| 1777465765 | 6.67° C | 80% | 1020.2 hPa | 0 mm | - | 32 W/m² | - |
| 1777465461 | 6.11° C | 80% | 1020.1 hPa | 0 mm | - | 25 W/m² | - |
| 1777465160 | 6.11° C | 79% | 1020.1 hPa | 0 mm | - | 18 W/m² | - |
* Rain latest hour (hover to see other rain measurements)
** Current wind speed in m/s (hover to see current wind gust speed)